STARLINK-2504, 48328

Orbit data source: Space-Track

STARLINK-2504, 48328 is a payload satellite owned by SpaceX/Seattle (US) in LEO that was launched on Thu, 29 Apr 2021 UTC via an FALCON 9 launch vehicle from the Air Force Eastern Test Range (AFETR). Payload-class satellites include a variety of spacecraft equipped with specific instruments for various scientific and technological missions. These include communications satellites like Starlink; space stations such as the ISS; scientific satellites like the Hubble; Earth observation satellites from companies like Planet Labs, Umbra, and HawkEye 360; GPS; miniature CubeSats for education and research; and military/defense satellites.

Loading next visibility...
Identifier
48328, 2021-036BE
Orbit
LEO
Country
Flag of USUS
Related business
Manufacturer
SpaceX/Seattle
Mission
Operational Commercial Communications
Bus & Motor
STARLINK, Unknown motor
Mass
260 kg wet, ~248 kg dry
Launch date (UTC)
2021-04-29 (4 years ago)
Launch vehicle
FALCON 9
Launch site
Air Force Eastern Test Range (AFETR)
Object type
Payload
Rocket body
Debris
Shape & HBR
Box + 1 Pan, 10.1 m
Radar Cross Section
13.562 m², Large (>1 m²)

Expand to show TLE details & history
Last TLE update: 21 hours ago

TLE from 21 hours ago
0 STARLINK-2504
1 48328U 21036BE  25290.97663723  .00013005  00000-0  88998-3 0  9992
2 48328  53.0568  22.2825 0001766  98.9146 261.2043 15.06415107246529
Epoch: 2025-10-17T23:26Z
TLE epoch observation values (Epoch: 2025-10-17T23:26:21.456Z)
Latitude
-0.00003°
Longitude
3.9788°
Altitude
548.232 km
Speed
7.589 km/s
True Right ascension
01h 29m 07s
True Declination
0° 00' 00"
Sunlit
Object was in full shadow at epoch
Visualization orbit readout
Latitude
Unknown
Longitude
Unknown
Altitude
Unknown
Speed
Unknown
Apparent Right ascension
Unknown
Apparent Declination
Unknown
Sunlit
N/A
Visualization observer readout
Local Sidereal Time
15:37:31
Azimuth
Unknown
Elevation
Unknown
Doppler factor
Unknown
Orbital elements
Apogee altitude
548.659 km
Perigee altitude
546.213 km
Semi-major axis
6,925.573 km
Eccentricity
0.00018
Inclination
53.0568°
RAAN
22.2825°
Arg. of periapsis
98.9146°
True anomaly
261.1843°
Mean anomaly
261.2043°
Eccentric anomaly
261.1943°
Mean motion
3.76582 °/min
Orbital period
95.6 mins
BSTAR
0.00088998
Loading maneuver chart data...
Computing Atmospheric mass density...
Loading historical data...
Loading historical data...
Loading historical data...
Loading historical data...
Loading historical data...
Loading historical data...
Loading historical data...

Documentation

Showing up to 5 results
|